GLO1417 SBBR-SBSP

Flight info

Callsign GLO1417
Flight time N/A
Altitude 35000
Route GEBEP UZ2 ENTIT
Aircraft B738/M-SDE2E3FGHIRWXY/LB1

Departure

Time 2026-05-04 22:07
Airport Presidente Juscelino Kubitschek International Airport (SBBR)

Arrival

Time N/A
Airport Congonhas–Deputado Freitas Nobre Airport (SBSP)
Time Latitude Longitude Altitude Speed Heading
2026-05-04 21:44 -15.86710 -47.91972 3463 ft 0 kts 182°
2026-05-04 21:54 -15.86708 -47.91972 3463 ft 3 kts 182°
2026-05-04 21:54 -15.86689 -47.91972 3462 ft 3 kts 182°
2026-05-04 21:55 -15.86670 -47.91971 3463 ft 3 kts 182°
2026-05-04 21:55 -15.86651 -47.91970 3461 ft 3 kts 169°
2026-05-04 21:55 -15.86634 -47.91978 3461 ft 3 kts 130°
2026-05-04 21:55 -15.86625 -47.91996 3460 ft 3 kts 92°
2026-05-04 21:56 -15.86626 -47.92011 3460 ft 0 kts 87°
2026-05-04 21:58 -15.86625 -47.92009 3460 ft 1 kts 86°
2026-05-04 21:58 -15.86622 -47.91964 3463 ft 11 kts 85°
2026-05-04 21:59 -15.86617 -47.91876 3463 ft 12 kts 86°
2026-05-04 21:59 -15.86611 -47.91789 3463 ft 12 kts 87°
2026-05-04 21:59 -15.86644 -47.91718 3464 ft 12 kts 157°
2026-05-04 21:59 -15.86724 -47.91709 3464 ft 11 kts 176°
2026-05-04 22:00 -15.86803 -47.91703 3464 ft 12 kts 176°
2026-05-04 22:00 -15.86893 -47.91697 3463 ft 14 kts 175°
2026-05-04 22:00 -15.87002 -47.91689 3462 ft 17 kts 177°
2026-05-04 22:00 -15.87086 -47.91684 3464 ft 20 kts 176°
2026-05-04 22:01 -15.87284 -47.91671 3463 ft 23 kts 176°
2026-05-04 22:01 -15.87450 -47.91659 3463 ft 23 kts 176°
2026-05-04 22:01 -15.87605 -47.91650 3469 ft 18 kts 186°
2026-05-04 22:01 -15.87651 -47.91758 3469 ft 18 kts 265°
2026-05-04 22:02 -15.87656 -47.91842 3469 ft 17 kts 266°
2026-05-04 22:02 -15.87672 -47.91961 3469 ft 16 kts 233°
2026-05-04 22:02 -15.87755 -47.92026 3469 ft 16 kts 255°
2026-05-04 22:02 -15.87768 -47.92144 3469 ft 17 kts 265°
2026-05-04 22:03 -15.87774 -47.92280 3470 ft 21 kts 265°
2026-05-04 22:03 -15.87786 -47.92443 3470 ft 24 kts 266°
2026-05-04 22:03 -15.87796 -47.92626 3470 ft 27 kts 266°
2026-05-04 22:03 -15.87810 -47.92828 3470 ft 29 kts 266°
2026-05-04 22:04 -15.87824 -47.93040 3470 ft 28 kts 265°
2026-05-04 22:04 -15.87836 -47.93234 3471 ft 26 kts 266°
2026-05-04 22:04 -15.87847 -47.93415 3472 ft 24 kts 266°
2026-05-04 22:04 -15.87857 -47.93587 3472 ft 24 kts 266°
2026-05-04 22:05 -15.87868 -47.93759 3473 ft 25 kts 264°
2026-05-04 22:05 -15.87881 -47.93932 3473 ft 23 kts 265°
2026-05-04 22:05 -15.87975 -47.93995 3480 ft 17 kts 178°
2026-05-04 22:05 -15.88062 -47.93984 3489 ft 2 kts 146°
2026-05-04 22:06 -15.88064 -47.93963 3490 ft 0 kts 86°
2026-05-04 22:06 -15.88060 -47.93899 3485 ft 36 kts 88°
2026-05-04 22:06 -15.88025 -47.93387 3482 ft 105 kts 86°
2026-05-04 22:07 -15.87967 -47.92419 3482 ft 160 kts 87°
2026-05-04 22:07 -15.87878 -47.91215 3974 ft 173 kts 85°
2026-05-04 22:07 -15.87981 -47.89964 4660 ft 179 kts 116°
2026-05-04 22:07 -15.88963 -47.89063 5002 ft 209 kts 156°
2026-05-04 22:08 -15.90451 -47.88661 5200 ft 233 kts 162°
2026-05-04 22:08 -15.92111 -47.88246 5363 ft 257 kts 163°
2026-05-04 22:08 -15.93912 -47.87794 5862 ft 271 kts 163°
2026-05-04 22:08 -15.95765 -47.87326 6586 ft 276 kts 163°
2026-05-04 22:09 -15.97643 -47.86846 7316 ft 279 kts 164°
2026-05-04 22:09 -15.99539 -47.86357 8047 ft 283 kts 164°
2026-05-04 22:09 -16.01463 -47.85857 8756 ft 287 kts 165°
2026-05-04 22:09 -16.03415 -47.85346 9481 ft 291 kts 166°
2026-05-04 22:10 -16.05399 -47.84827 10210 ft 295 kts 167°
2026-05-04 22:10 -16.07430 -47.84293 10597 ft 312 kts 166°
2026-05-04 22:10 -16.09599 -47.83668 10748 ft 335 kts 164°
2026-05-04 22:10 -16.11901 -47.82971 10946 ft 353 kts 164°
2026-05-04 22:11 -16.14290 -47.82240 11408 ft 361 kts 163°
2026-05-04 22:11 -16.16712 -47.81498 12026 ft 364 kts 163°
2026-05-04 22:11 -16.19153 -47.80752 12608 ft 368 kts 163°
2026-05-04 22:11 -16.21619 -47.80001 13241 ft 371 kts 163°
2026-05-04 22:12 -16.24115 -47.79244 13781 ft 377 kts 163°
2026-05-04 22:12 -16.26604 -47.78490 14370 ft 378 kts 163°
2026-05-04 22:12 -16.29135 -47.77724 14962 ft 380 kts 164°
2026-05-04 22:12 -16.31682 -47.76954 15525 ft 383 kts 164°
2026-05-04 22:13 -16.34251 -47.76177 16086 ft 386 kts 164°
2026-05-04 22:13 -16.36841 -47.75394 16645 ft 389 kts 164°
2026-05-04 22:13 -16.39446 -47.74606 17201 ft 392 kts 164°
2026-05-04 22:13 -16.42071 -47.73812 17750 ft 395 kts 164°
2026-05-04 22:14 -16.44717 -47.73011 18301 ft 397 kts 164°
2026-05-04 22:14 -16.47380 -47.72205 18777 ft 400 kts 164°
2026-05-04 22:14 -16.50066 -47.71391 19231 ft 403 kts 165°
2026-05-04 22:14 -16.52764 -47.70573 19730 ft 405 kts 165°
2026-05-04 22:15 -16.55474 -47.69752 20228 ft 406 kts 165°
2026-05-04 22:15 -16.58201 -47.68926 20660 ft 410 kts 165°
2026-05-04 22:15 -16.60954 -47.68092 21119 ft 412 kts 165°
2026-05-04 22:15 -16.63712 -47.67256 21610 ft 413 kts 165°
2026-05-04 22:16 -16.66482 -47.66415 22044 ft 416 kts 165°
2026-05-04 22:16 -16.69272 -47.65568 22484 ft 419 kts 165°
2026-05-04 22:16 -16.72076 -47.64717 22908 ft 421 kts 165°
2026-05-04 22:16 -16.74895 -47.63862 23335 ft 423 kts 165°
2026-05-04 22:17 -16.77730 -47.63001 23744 ft 425 kts 165°
2026-05-04 22:17 -16.80578 -47.62135 24086 ft 428 kts 165°
2026-05-04 22:17 -16.83441 -47.61265 24419 ft 430 kts 165°
2026-05-04 22:17 -16.86325 -47.60389 24749 ft 432 kts 166°
2026-05-04 22:18 -16.89184 -47.59519 25075 ft 435 kts 166°
2026-05-04 22:18 -16.92094 -47.58634 25381 ft 437 kts 166°
2026-05-04 22:18 -16.95022 -47.57743 25699 ft 439 kts 166°
2026-05-04 22:18 -16.97967 -47.56847 26027 ft 441 kts 166°
2026-05-04 22:19 -17.00923 -47.55947 26385 ft 442 kts 166°
2026-05-04 22:19 -17.03885 -47.55044 26693 ft 445 kts 166°
2026-05-04 22:19 -17.06868 -47.54136 26982 ft 447 kts 166°
2026-05-04 22:19 -17.09858 -47.53224 27269 ft 450 kts 166°
2026-05-04 22:20 -17.12870 -47.52306 27569 ft 452 kts 167°
2026-05-04 22:20 -17.15898 -47.51382 27858 ft 454 kts 167°
2026-05-04 22:20 -17.18940 -47.50454 28144 ft 456 kts 167°
2026-05-04 22:20 -17.21995 -47.49522 28427 ft 458 kts 167°
2026-05-04 22:21 -17.25023 -47.48597 28721 ft 459 kts 167°
2026-05-04 22:21 -17.28096 -47.47659 29015 ft 461 kts 167°
2026-05-04 22:21 -17.31184 -47.46716 29269 ft 463 kts 167°
2026-05-04 22:21 -17.34285 -47.45768 29527 ft 465 kts 167°
2026-05-04 22:22 -17.37393 -47.44818 29895 ft 465 kts 167°
2026-05-04 22:22 -17.40489 -47.43871 30308 ft 463 kts 167°
2026-05-04 22:22 -17.43572 -47.42927 30686 ft 461 kts 167°
2026-05-04 22:22 -17.46649 -47.41985 31050 ft 460 kts 168°
2026-05-04 22:23 -17.49722 -47.41075 31386 ft 458 kts 171°
2026-05-04 22:23 -17.52834 -47.40419 31717 ft 454 kts 175°
2026-05-04 22:23 -17.55949 -47.39935 32088 ft 451 kts 176°
2026-05-04 22:23 -17.59056 -47.39514 32468 ft 449 kts 177°
2026-05-04 22:24 -17.62156 -47.39098 32818 ft 449 kts 177°
2026-05-04 22:24 -17.65249 -47.38667 33150 ft 448 kts 177°
2026-05-04 22:24 -17.68335 -47.38215 33505 ft 447 kts 176°
2026-05-04 22:24 -17.71412 -47.37749 33850 ft 447 kts 176°
2026-05-04 22:25 -17.74489 -47.37271 34157 ft 447 kts 176°
2026-05-04 22:25 -17.77563 -47.36788 34454 ft 446 kts 176°
2026-05-04 22:25 -17.80616 -47.36304 34821 ft 442 kts 177°
2026-05-04 22:25 -17.83655 -47.35821 35118 ft 441 kts 177°
2026-05-04 22:26 -17.86714 -47.35340 35102 ft 446 kts 177°
2026-05-04 22:26 -17.92857 -47.34373 35123 ft 445 kts 177°
2026-05-04 22:27 -17.98937 -47.33411 35128 ft 440 kts 177°
2026-05-04 22:27 -18.04942 -47.32462 35129 ft 438 kts 177°
2026-05-04 22:28 -18.10976 -47.31510 35126 ft 438 kts 177°
2026-05-04 22:28 -18.17002 -47.30558 35126 ft 438 kts 177°
2026-05-04 22:29 -18.23038 -47.29604 35126 ft 439 kts 177°
2026-05-04 22:29 -18.29081 -47.28648 35127 ft 439 kts 177°
2026-05-04 22:30 -18.35130 -47.27689 35131 ft 440 kts 177°
2026-05-04 22:30 -18.41199 -47.26728 35131 ft 441 kts 177°
2026-05-04 22:31 -18.47283 -47.25763 35136 ft 443 kts 177°
2026-05-04 22:31 -18.53379 -47.24795 35130 ft 443 kts 177°
2026-05-04 22:32 -18.59436 -47.23833 35140 ft 443 kts 177°
2026-05-04 22:32 -18.65537 -47.22864 35138 ft 444 kts 177°
2026-05-04 22:33 -18.71641 -47.21895 35146 ft 444 kts 177°
2026-05-04 22:33 -18.77761 -47.20919 35139 ft 444 kts 177°
2026-05-04 22:34 -18.83879 -47.19941 35141 ft 444 kts 177°
2026-05-04 22:34 -18.89979 -47.18968 35138 ft 443 kts 177°
2026-05-04 22:35 -18.96040 -47.18001 35140 ft 443 kts 177°
2026-05-04 22:35 -19.02136 -47.17029 35136 ft 442 kts 177°
2026-05-04 22:36 -19.08216 -47.16059 35142 ft 441 kts 177°
2026-05-04 22:36 -19.14285 -47.15090 35144 ft 441 kts 177°
2026-05-04 22:37 -19.20362 -47.14170 35142 ft 440 kts 178°
2026-05-04 22:37 -19.26434 -47.13319 35155 ft 440 kts 178°
2026-05-04 22:38 -19.32510 -47.12471 35173 ft 440 kts 178°
2026-05-04 22:38 -19.38578 -47.11615 35202 ft 440 kts 178°
2026-05-04 22:39 -19.44610 -47.10759 35209 ft 440 kts 178°
2026-05-04 22:39 -19.50683 -47.09896 35221 ft 440 kts 178°
2026-05-04 22:40 -19.56751 -47.09032 35232 ft 440 kts 178°
2026-05-04 22:40 -19.62831 -47.08167 35240 ft 440 kts 178°
2026-05-04 22:41 -19.68897 -47.07303 35156 ft 440 kts 178°
2026-05-04 22:41 -19.74960 -47.06439 35157 ft 440 kts 178°
2026-05-04 22:42 -19.81021 -47.05574 35158 ft 439 kts 178°
2026-05-04 22:42 -19.87083 -47.04708 35175 ft 439 kts 178°
2026-05-04 22:43 -19.93136 -47.03843 35176 ft 438 kts 179°
2026-05-04 22:43 -19.99183 -47.02979 35162 ft 438 kts 178°
2026-05-04 22:44 -20.05240 -47.02112 35158 ft 438 kts 179°
2026-05-04 22:44 -20.11281 -47.01247 35174 ft 438 kts 179°
2026-05-04 22:45 -20.17290 -47.00386 35158 ft 438 kts 179°
2026-05-04 22:45 -20.26347 -46.99087 35145 ft 437 kts 179°
2026-05-04 22:46 -20.32369 -46.98222 35150 ft 436 kts 179°
2026-05-04 22:46 -20.38380 -46.97358 35159 ft 436 kts 179°
2026-05-04 22:47 -20.44393 -46.96494 35147 ft 435 kts 179°
2026-05-04 22:47 -20.50402 -46.95630 35151 ft 435 kts 179°
2026-05-04 22:48 -20.56368 -46.94770 35159 ft 435 kts 179°
2026-05-04 22:48 -20.62360 -46.93908 35153 ft 434 kts 179°
2026-05-04 22:49 -20.68348 -46.93045 35149 ft 434 kts 179°
2026-05-04 22:49 -20.74335 -46.92183 35154 ft 434 kts 179°
2026-05-04 22:50 -20.80322 -46.91310 35174 ft 435 kts 178°
2026-05-04 22:50 -20.85301 -46.90534 35165 ft 435 kts 178°
2026-05-04 22:51 -20.91298 -46.89582 35160 ft 436 kts 178°
2026-05-04 22:51 -20.97302 -46.88634 35159 ft 436 kts 178°
2026-05-04 22:52 -21.03308 -46.87692 35178 ft 436 kts 178°
2026-05-04 22:52 -21.09316 -46.86750 35162 ft 436 kts 178°
2026-05-04 22:53 -21.15322 -46.85808 35161 ft 436 kts 178°
2026-05-04 22:53 -21.21328 -46.84865 35162 ft 436 kts 178°
2026-05-04 22:54 -21.27328 -46.83923 35158 ft 436 kts 178°
2026-05-04 22:54 -21.33321 -46.82981 35156 ft 435 kts 178°
2026-05-04 22:55 -21.38290 -46.82199 35156 ft 434 kts 178°